Location: Black Swamp Observatory
(41.3920°N, 84.1250°W)
Time: 15:16:37
(UTC-05:00)

Vanguard 1 - Visible Passes

Search period start: 25 January 2022 00:00
Search period end: 04 February 2022 00:00
Orbit: 652 x 3830 km, 34.2° (Epoch: 24 January)

Date Brightness Start Highest point End Pass type
(mag) Time Alt. Az. Time Alt. Az. Time Alt. Az.
29 Jan 14.0 06:08:25 10° S 06:16:12 15° SSE 06:22:18 10° ESE visible
30 Jan 13.7 06:26:22 10° SSW 06:37:20 21° SSE 06:45:02 10° ESE visible
31 Jan 13.4 06:45:28 10° SSW 06:58:26 27° SSE 07:06:50 10° ESE visible
01 Feb 14.1 04:48:31 10° S 04:56:29 14° SE 05:03:06 10° ESE visible
01 Feb 13.1 07:05:15 10° SSW 07:19:30 34° SSE 07:28:13 10° E visible
02 Feb 13.8 05:05:29 10° S 05:17:36 20° SSE 05:26:38 10° ESE visible
03 Feb 13.6 05:24:01 10° SSW 05:38:43 26° SSE 05:48:52 10° E visible
